{"data":{"norad_id":57208,"intl_designator":"2023-091AU","name":"SITRO-AIS 11 (SHEFFER)","alt_names":[],"object_type":"PAYLOAD","status":"ACTIVE","operator":null,"country":"CIS","launch_date":"2023-06-27","launch_site_code":"VOSTO","launch_vehicle":null,"mission":null,"orbit_class":"UNKNOWN","rcs_meters":null,"size_class":null,"mass_kg":null,"dimensions":null,"purposes":["tech_demo"],"wikipedia_slug":null,"has_3d_model":false,"image_url":null,"decayed_at":null,"tle_current":{"epoch":"2026-09-19T22:04:36.373152Z","epoch_age_seconds":68467,"freshness":"FRESH","line1":"1 57208U 23091AU  26262.91986543  .00015861  00000+0  37154-3 0  9993","line2":"2 57208  97.5001 336.4020 0006953  89.2685 270.9358 15.42165764179377","mean_motion":15.42165764,"eccentricity":0.0006953,"inclination_deg":97.5001,"raan_deg":336.402,"arg_perigee_deg":89.2685,"mean_anomaly_deg":270.9358,"bstar":0.00037154,"rev_number":17937,"period_min":93.375176236891,"perigee_km":434.97821031802,"apogee_km":444.45912040628,"semimajor_km":6817.8556653621,"source":"CELESTRAK","updated_at":"2026-09-20T09:00:48.037310Z"}}}